Location: Fort Worth, Tx
(32.7431°N, 97.3695°W)
Time: 21:42:06
(UTC-05:00)

Tiros 1 - Pass Details

Date: 05 October 2024
Orbit: 622 x 654 km, 48.4° (Epoch: 05 November)

Event Time Altitude Azimuth Distance (km) Brightness Sun altitude
Rises 13:11:53 0° 308° (NW) 2,910 10.2 49.0°
Reaches altitude 10° 13:16:08 10° 346° (NNW) 1,995 9.4 49.4°
Maximum altitude 13:17:20 11° 1° (N) 1,936 9.4 49.5°
Drops below altitude 10° 13:18:31 10° 16° (NNE) 1,992 9.5 49.6°
Sets 13:22:46 0° 54° (NE) 2,895 10.4 50.0°
